Kilmarnock, Virginia, United States (22482)
Lat: 37.71N, Lon: 76.38W
Wx Zone: VAZ078
Local Info
Past Weather Observations for Yesterday

NOTE: This archive is for the closest National Weather Service station to Kilmarnock. Information may differ from the station used for current weather conditions.

Click here for Long-term Archive

Time Weather Temperature Dewpoint Humidity Pressure Winds Precip Visibility
23:55
Clear
77°F / 25°C 72°F / 22°C 83% 30.06 in
(1018 mb)
SSE 3.5 mph
(SSE 6 kph)
- 10SM
23:35
Clear
77°F / 25°C 72°F / 22°C 83% 30.06 in
(1018 mb)
SE 3.5 mph
(SE 6 kph)
- 10SM
23:15
Clear
77°F / 25°C 73°F / 23°C 89% 30.06 in
(1018 mb)
SE 4.6 mph
(SE 7 kph)
- 10SM
22:55
Clear
77°F / 25°C 73°F / 23°C 89% 30.06 in
(1018 mb)
SSE 3.5 mph
(SSE 6 kph)
- 10SM
22:35
Clear
77°F / 25°C 73°F / 23°C 89% 30.06 in
(1018 mb)
SE 3.5 mph
(SE 6 kph)
- 10SM
22:15
Clear
75°F / 24°C 73°F / 23°C 94% 30.06 in
(1018 mb)
SSE 4.6 mph
(SSE 7 kph)
- 10SM
21:55
Clear
75°F / 24°C 73°F / 23°C 94% 30.06 in
(1018 mb)
Calm - 10SM
21:35
Clear
75°F / 24°C 72°F / 22°C 89% 30.06 in
(1018 mb)
E 3.5 mph
(E 6 kph)
- 5SM
21:15
Clear
75°F / 24°C 73°F / 23°C 94% 30.06 in
(1018 mb)
Calm - 7SM
20:55
Clear
75°F / 24°C 73°F / 23°C 94% 30.06 in
(1018 mb)
Calm - 5SM
20:35
Clear
75°F / 24°C 73°F / 23°C 94% 30.06 in
(1018 mb)
Calm - 5SM
20:15
Clear
77°F / 25°C 73°F / 23°C 89% 30.06 in
(1018 mb)
Calm - 7SM
19:55
Clear
77°F / 25°C 73°F / 23°C 89% 30.06 in
(1018 mb)
Calm - 7SM
19:35
Clear
77°F / 25°C 72°F / 22°C 83% 30.06 in
(1018 mb)
Calm - 10SM
19:15
Clear
79°F / 26°C 72°F / 22°C 79% 30.06 in
(1018 mb)
Calm - 10SM
18:55
Partly Cloudy
81°F / 27°C 70°F / 21°C 70% 30.06 in
(1018 mb)
Calm 0.63 in
(16.00 mm)
10SM
18:35
Overcast
79°F / 26°C 72°F / 22°C 79% 30.06 in
(1018 mb)
SE 6.9 mph
(SE 11 kph)
0.63 in
(16.00 mm)
10SM
18:15
Overcast
77°F / 25°C 72°F / 22°C 83% 30.06 in
(1018 mb)
S 4.6 mph
(S 7 kph)
0.60 in
(15.24 mm)
1/4SM
17:55
Mostly Cloudy
79°F / 26°C 68°F / 20°C 70% 30.06 in
(1018 mb)
SSW 17.3 mph
(SSW 28 kph)
- 10SM
17:35
Partly Cloudy
84°F / 29°C 72°F / 22°C 66% 30.06 in
(1018 mb)
SW 13.8 mph
(SW 22 kph)
- 10SM
17:15
Partly Cloudy
86°F / 30°C 72°F / 22°C 62% 30.06 in
(1018 mb)
SE 8.1 mph
(SE 13 kph)
- 10SM
16:55
Partly Cloudy
88°F / 31°C 72°F / 22°C 59% 30.06 in
(1018 mb)
SSE 9.2 mph
(SSE 15 kph)
- 10SM
16:35
Partly Cloudy
90°F / 32°C 72°F / 22°C 55% 30.06 in
(1018 mb)
SE 4.6 mph
(SE 7 kph)
- 10SM
16:15
Partly Cloudy
90°F / 32°C 70°F / 21°C 52% 30.06 in
(1018 mb)
SE 10.4 mph
(SE 17 kph)
- 10SM
15:55
Clear
90°F / 32°C 70°F / 21°C 52% 30.06 in
(1018 mb)
SSE 8.1 mph
(SSE 13 kph)
- 10SM
15:35
Clear
90°F / 32°C 70°F / 21°C 52% 30.06 in
(1018 mb)
SE 5.8 mph
(SE 9 kph)
- 10SM
15:15
Clear
90°F / 32°C 66°F / 19°C 46% 30.06 in
(1018 mb)
S 6.9 mph
(S 11 kph)
- 10SM
14:55
Partly Cloudy
91°F / 33°C 68°F / 20°C 46% 30.06 in
(1018 mb)
SSE 9.2 mph
(SSE 15 kph)
- 10SM
14:35
Clear
90°F / 32°C 70°F / 21°C 52% 30.09 in
(1019 mb)
S 5.8 mph
(S 9 kph)
- 10SM
14:15
Partly Cloudy
90°F / 32°C 70°F / 21°C 52% 30.09 in
(1019 mb)
SSE 5.8 mph
(SSE 9 kph)
- 10SM
13:55
Partly Cloudy
88°F / 31°C 70°F / 21°C 55% 30.09 in
(1019 mb)
SW 8.1 mph
(SW 13 kph)
- 10SM
13:35
Partly Cloudy
88°F / 31°C 68°F / 20°C 52% 30.09 in
(1019 mb)
SSE 9.2 mph
(SSE 15 kph)
- 10SM
13:15
Partly Cloudy
88°F / 31°C 68°F / 20°C 52% 30.09 in
(1019 mb)
S 8.1 mph
(S 13 kph)
- 10SM
12:55
Partly Cloudy
88°F / 31°C 70°F / 21°C 55% 30.09 in
(1019 mb)
S 9.2 mph
(S 15 kph)
- 10SM
12:35
Partly Cloudy
88°F / 31°C 68°F / 20°C 52% 30.12 in
(1020 mb)
S 9.2 mph
(S 15 kph)
- 10SM
12:15
Partly Cloudy
88°F / 31°C 68°F / 20°C 52% 30.12 in
(1020 mb)
SW 10.4 mph
(SW 17 kph)
- 10SM
11:55
Partly Cloudy
88°F / 31°C 72°F / 22°C 59% 30.12 in
(1020 mb)
S 6.9 mph
(S 11 kph)
- 10SM
11:35
Mostly Cloudy
86°F / 30°C 72°F / 22°C 62% 30.12 in
(1020 mb)
S 8.1 mph
(S 13 kph)
- 10SM
11:15
Mostly Cloudy
86°F / 30°C 73°F / 23°C 66% 30.12 in
(1020 mb)
SSE 6.9 mph
(SSE 11 kph)
- 10SM
10:55
Mostly Cloudy
86°F / 30°C 73°F / 23°C 66% 30.12 in
(1020 mb)
SE 5.8 mph
(SE 9 kph)
- 10SM
10:35
Partly Cloudy
86°F / 30°C 72°F / 22°C 62% 30.15 in
(1021 mb)
SSE 6.9 mph
(SSE 11 kph)
- 10SM
10:15
Partly Cloudy
84°F / 29°C 73°F / 23°C 70% 30.15 in
(1021 mb)
SSE 8.1 mph
(SSE 13 kph)
- 10SM
09:55
Mostly Cloudy
82°F / 28°C 73°F / 23°C 74% 30.15 in
(1021 mb)
SSE 5.8 mph
(SSE 9 kph)
- 10SM
09:35
Partly Cloudy
82°F / 28°C 73°F / 23°C 74% 30.15 in
(1021 mb)
SSE 4.6 mph
(SSE 7 kph)
- 10SM
09:15
Mostly Cloudy
82°F / 28°C 73°F / 23°C 74% 30.15 in
(1021 mb)
SSE 5.8 mph
(SSE 9 kph)
- 10SM
08:55
Partly Cloudy
82°F / 28°C 73°F / 23°C 74% 30.15 in
(1021 mb)
SE 6.9 mph
(SE 11 kph)
- 10SM
08:35
Partly Cloudy
81°F / 27°C 73°F / 23°C 79% 30.15 in
(1021 mb)
SSE 5.8 mph
(SSE 9 kph)
- 10SM
08:15
Partly Cloudy
81°F / 27°C 73°F / 23°C 79% 30.15 in
(1021 mb)
SSE 8.1 mph
(SSE 13 kph)
- 10SM
07:55
Partly Cloudy
79°F / 26°C 73°F / 23°C 84% 30.15 in
(1021 mb)
SSE 6.9 mph
(SSE 11 kph)
- 10SM
07:35
Partly Cloudy
79°F / 26°C 73°F / 23°C 84% 30.15 in
(1021 mb)
SSE 5.8 mph
(SSE 9 kph)
- 10SM
07:15
Partly Cloudy
77°F / 25°C 73°F / 23°C 89% 30.15 in
(1021 mb)
S 3.5 mph
(S 6 kph)
- 10SM
06:55
Partly Cloudy
77°F / 25°C 73°F / 23°C 89% 30.15 in
(1021 mb)
S 3.5 mph
(S 6 kph)
- 10SM
06:35
Clear
77°F / 25°C 73°F / 23°C 89% 30.15 in
(1021 mb)
Calm - 10SM
06:15
Clear
75°F / 24°C 73°F / 23°C 94% 30.12 in
(1020 mb)
Calm - 10SM
05:55
Clear
75°F / 24°C 72°F / 22°C 89% 30.12 in
(1020 mb)
Calm - 10SM
05:35
Clear
73°F / 23°C 72°F / 22°C 94% 30.12 in
(1020 mb)
Calm - 10SM
05:15
Clear
73°F / 23°C 72°F / 22°C 94% 30.12 in
(1020 mb)
Calm - 10SM
04:55
Clear
73°F / 23°C 72°F / 22°C 94% 30.12 in
(1020 mb)
Calm - 10SM
04:35
Clear
73°F / 23°C 72°F / 22°C 94% 30.12 in
(1020 mb)
Calm - 10SM
04:15
Clear
73°F / 23°C 72°F / 22°C 94% 30.12 in
(1020 mb)
E 3.5 mph
(E 6 kph)
- 10SM
03:55
Clear
75°F / 24°C 72°F / 22°C 89% 30.12 in
(1020 mb)
Calm - 10SM
03:35
Partly Cloudy
75°F / 24°C 72°F / 22°C 89% 30.12 in
(1020 mb)
E 4.6 mph
(E 7 kph)
- 10SM
03:15
Clear
75°F / 24°C 72°F / 22°C 89% 30.09 in
(1019 mb)
E 3.5 mph
(E 6 kph)
- 10SM
02:55
Partly Cloudy
75°F / 24°C 72°F / 22°C 89% 30.09 in
(1019 mb)
Calm 0.02 in
(0.51 mm)
7SM
02:35
Overcast
75°F / 24°C 73°F / 23°C 94% 30.09 in
(1019 mb)
NE 3.5 mph
(NE 6 kph)
0.02 in
(0.51 mm)
7SM
02:15
Mostly Cloudy
75°F / 24°C 72°F / 22°C 89% 30.09 in
(1019 mb)
Calm - 7SM
01:55
Partly Cloudy
77°F / 25°C 73°F / 23°C 89% 30.12 in
(1020 mb)
Calm 0.01 in
(0.25 mm)
10SM
01:35
Clear
77°F / 25°C 73°F / 23°C 89% 30.12 in
(1020 mb)
S 3.5 mph
(S 6 kph)
0.01 in
(0.25 mm)
10SM
01:15
Partly Cloudy
77°F / 25°C 73°F / 23°C 89% 30.12 in
(1020 mb)
S 4.6 mph
(S 7 kph)
0.01 in
(0.25 mm)
10SM
00:55
Mostly Cloudy
77°F / 25°C 73°F / 23°C 89% 30.12 in
(1020 mb)
S 3.5 mph
(S 6 kph)
- 10SM
00:35
Mostly Cloudy
77°F / 25°C 73°F / 23°C 89% 30.12 in
(1020 mb)
S 3.5 mph
(S 6 kph)
- 10SM
00:15
Mostly Cloudy
77°F / 25°C 73°F / 23°C 89% 30.12 in
(1020 mb)
S 4.6 mph
(S 7 kph)
- 10SM
Time Weather Temperature Dewpoint Humidity Pressure Winds Precip Visibility


Weather for websites

WeatherForYou.com, LLC is not responsible for any damages or problems caused by this service. Current weather conditions are obtained from the closest station including government and personal stations which may have varying degrees of accuracy. Weather forecasts are derived from the NOAA NDFD. Like all things, this site belongs to Jesus Christ... He just trusts us to maintain it. If you have any questions or comments email webmaster@weatherforyou.com

Copyright © 2015, WeatherForYou.com LLC. All rights reserved.